Regional Weather Roundup
Issued by NWS

Home | Current Version | Previous Version | Text Only | Print | Product List | Glossary On
Versions: 1 2 3 4 5 6 7 8 9 10 11 12 13 14 15 16 17 18 19 20 21 22 23 24 25 26 27 28 29 30 31 32 33 34 35 36 37 38 39 40 41 42 43 44 45 46 47 48 49 50
000
ASUS43 KBIS 240210
RWRND

NORTH DAKOTA REGIONAL WEATHER ROUNDUP
NATIONAL WEATHER SERVICE BISMARCK ND
800 PM CST TUE JAN 23 2018

NOTE: "FAIR" INDICATES FEW OR NO CLOUDS BELOW 12,000 FEET WITH NO
SIGNIFICANT WEATHER AND/OR OBSTRUCTIONS TO VISIBILITY.


NDZ001>003-009>011-017-240300-
NORTHWEST NORTH DAKOTA

CITY           SKY/WX    TMP DP  RH WIND       PRES   REMARKS
WILLISTON      CLEAR     20  16  84 SW3       30.09F
MINOT          CLEAR     20  17  88 CALM      30.10F
MINOT AFB      CLOUDY    20  18  90 W5        30.09F WCI  14
$$

NDZ018>021-031>035-040>046-240300-
SOUTHWEST NORTH DAKOTA

CITY           SKY/WX    TMP DP  RH WIND       PRES   REMARKS
BISMARCK       CLEAR     17  15  92 E6        30.16S WCI   9
DICKINSON      CLEAR     23  18  81 W13       30.08F WCI  11
GARRISON         N/A     12  10  92 CALM      30.11F
HETTINGER ARPT CLEAR     23  19  85 W9        30.14S WCI  13
$$

NDZ004>008-012>016-024-026-027-054-240300-
NORTHEAST NORTH DAKOTA

CITY           SKY/WX    TMP DP  RH WIND       PRES   REMARKS
GRAND FORKS    CLOUDY    24  19  81 W7        30.14R WCI  16
GRND FRKS AFB  CLOUDY    23  17  79 NW5       30.13R WCI  17
DEVILS LAKE    CLOUDY    23  19  85 NW10      30.13R WCI  12
$$

NDZ022-023-025-028>030-036>039-047>053-240300-
SOUTHEAST NORTH DAKOTA

CITY           SKY/WX    TMP DP  RH WIND       PRES   REMARKS
FARGO          CLOUDY    24  21  88 SW8       30.14R WCI  15
JAMESTOWN      CLOUDY    20  18  92 NW13      30.14S WCI   7
$$




USA.gov is the U.S. government's official web portal to all federal, state and local government web resources and services.